RYR67T EGPK-EGPK

Flight info

Callsign RYR67T
Flight time 0h 15m
Altitude 7000
Route 5535N00448W 5531N00453W DCT 5520N00422W DCT 5524N00417W
Aircraft B38M/M-SDE1FGHILORVWXY/HB1

Departure

Time 2026-05-04 12:24
Airport Glasgow Prestwick Airport (EGPK)

Arrival

Time 2026-05-04 12:39
Airport Glasgow Prestwick Airport (EGPK)
Time Latitude Longitude Altitude Speed Heading
2026-05-04 12:24 55.44329 -4.59280 3001 ft 310 kts 121°
2026-05-04 12:24 55.43226 -4.56107 2993 ft 289 kts 122°
2026-05-04 12:25 55.42244 -4.53284 2980 ft 251 kts 121°
2026-05-04 12:25 55.41377 -4.50753 3022 ft 240 kts 122°
2026-05-04 12:25 55.40518 -4.48231 3031 ft 239 kts 122°
2026-05-04 12:25 55.39671 -4.45754 3127 ft 235 kts 120°
2026-05-04 12:26 55.39195 -4.43215 3441 ft 211 kts 90°
2026-05-04 12:26 55.39526 -4.40755 3429 ft 203 kts 54°
2026-05-04 12:26 55.40532 -4.39126 3245 ft 195 kts 19°
2026-05-04 12:26 55.41806 -4.38704 3096 ft 188 kts 351°
2026-05-04 12:27 55.43058 -4.39237 2956 ft 184 kts 328°
2026-05-04 12:27 55.44011 -4.40675 2714 ft 179 kts 306°
2026-05-04 12:27 55.44740 -4.42394 2494 ft 168 kts 304°
2026-05-04 12:27 55.45398 -4.43962 2190 ft 152 kts 306°
2026-05-04 12:28 55.46003 -4.45395 1881 ft 140 kts 304°
2026-05-04 12:28 55.46511 -4.46714 1635 ft 130 kts 301°
2026-05-04 12:28 55.46976 -4.48027 1369 ft 122 kts 300°
2026-05-04 12:28 55.47412 -4.49291 1164 ft 121 kts 300°
2026-05-04 12:29 55.47852 -4.50553 1002 ft 121 kts 300°
2026-05-04 12:29 55.48293 -4.51821 822 ft 121 kts 298°
2026-05-04 12:29 55.48728 -4.53085 686 ft 120 kts 300°
2026-05-04 12:29 55.49168 -4.54334 477 ft 119 kts 300°
2026-05-04 12:30 55.49611 -4.55577 359 ft 120 kts 301°
2026-05-04 12:30 55.50048 -4.56844 260 ft 121 kts 298°
2026-05-04 12:30 55.50475 -4.58120 85 ft 114 kts 299°
2026-05-04 12:30 55.50921 -4.59413 323 ft 141 kts 301°
2026-05-04 12:31 55.51432 -4.61037 968 ft 155 kts 297°
2026-05-04 12:31 55.51965 -4.62565 1923 ft 150 kts 302°
2026-05-04 12:31 55.52581 -4.64227 2189 ft 169 kts 302°
2026-05-04 12:31 55.53240 -4.66032 2266 ft 181 kts 301°
2026-05-04 12:32 55.53659 -4.68190 2320 ft 195 kts 270°
2026-05-04 12:32 55.52031 -4.72173 2506 ft 232 kts 203°
2026-05-04 12:32 55.50375 -4.72507 2545 ft 251 kts 173°
2026-05-04 12:33 55.48753 -4.71303 2620 ft 259 kts 143°
2026-05-04 12:33 55.47566 -4.68877 2762 ft 265 kts 123°
2026-05-04 12:33 55.46601 -4.66131 2864 ft 268 kts 122°
2026-05-04 12:33 55.45631 -4.63324 2962 ft 268 kts 122°
2026-05-04 12:34 55.44662 -4.60496 2970 ft 269 kts 122°
2026-05-04 12:34 55.43686 -4.57684 2989 ft 268 kts 122°
2026-05-04 12:34 55.42712 -4.54885 3000 ft 268 kts 122°
2026-05-04 12:34 55.41743 -4.52072 3003 ft 268 kts 122°
2026-05-04 12:35 55.40781 -4.49252 3009 ft 269 kts 122°
2026-05-04 12:35 55.40097 -4.46226 2958 ft 268 kts 94°
2026-05-04 12:35 55.40444 -4.43087 2963 ft 262 kts 58°
2026-05-04 12:35 55.41710 -4.40882 2969 ft 256 kts 22°
2026-05-04 12:36 55.43406 -4.40300 2963 ft 247 kts 351°
2026-05-04 12:36 55.44977 -4.41317 2725 ft 235 kts 321°
2026-05-04 12:36 55.45970 -4.43370 2413 ft 210 kts 295°
2026-05-04 12:36 55.46363 -4.45710 1949 ft 187 kts 285°
2026-05-04 12:37 55.46860 -4.47676 1506 ft 164 kts 300°
2026-05-04 12:37 55.47416 -4.49296 1208 ft 146 kts 301°
2026-05-04 12:37 55.47913 -4.50724 963 ft 128 kts 300°
2026-05-04 12:37 55.48353 -4.52002 747 ft 118 kts 299°
2026-05-04 12:38 55.48778 -4.53255 594 ft 120 kts 301°
2026-05-04 12:38 55.49215 -4.54494 398 ft 118 kts 300°
2026-05-04 12:38 55.49648 -4.55709 282 ft 119 kts 299°
2026-05-04 12:38 55.50084 -4.56960 194 ft 122 kts 298°
2026-05-04 12:39 55.50538 -4.58279 85 ft 120 kts 298°
2026-05-04 12:39 55.50914 -4.59381 63 ft 90 kts 303°
2026-05-04 12:39 55.51213 -4.60247 51 ft 76 kts 302°
2026-05-04 12:39 55.51338 -4.60822 48 ft 24 kts 261°
2026-05-04 12:40 55.51320 -4.60962 46 ft 0 kts 236°
2026-05-04 12:40 55.51320 -4.60964 46 ft 1 kts 236°
2026-05-04 12:40 55.51273 -4.60990 48 ft 1 kts 154°
2026-05-04 12:40 55.51226 -4.60896 50 ft 6 kts 157°
2026-05-04 12:41 55.51194 -4.60929 49 ft 14 kts 232°
2026-05-04 12:41 55.51155 -4.61026 47 ft 9 kts 229°
2026-05-04 12:41 55.51127 -4.61026 46 ft 5 kts 142°
2026-05-04 12:41 55.51110 -4.60978 47 ft 5 kts 120°
2026-05-04 12:42 55.51099 -4.60947 47 ft 0 kts 121°